timestamp,record,latitude,longitude,height,speed,course,nb_gnss_sat,validity,hdop,vdop,pdop,sep,temp_1,temp_2,temp_3,temp_4,atm,Hm0,Tm01,Tm02,Tp,Mdir,PkDir,DirSpr,PkDirSpr,WmaxH,bat,year,month,day,hour,minute,second,ref
2021-06-09 23:15:00.000,0,40.9232,1.3249,,,,,,,,,,22.5,22.4,,,,,,,,,,,,,,2021,6,9,23,15,0,
2021-06-09 23:35:00.000,0,40.9228,1.3272,,,,,,,,,,22.6,22.4,,,,,,,,,,,,,,2021,6,9,23,35,0,
2021-06-09 23:55:00.000,0,40.9221,1.3295,,,,,,,,,,22.5,22.4,,,,,,,,,,,,,,2021,6,9,23,55,0,
2021-06-10 00:15:00.000,0,40.9214,1.3315,,,,15,,,,,,22.5,22.4,11.1,11.1,,2,12,11,14,275,250,74,72,3.4,4.1,2021,6,10,0,15,0,
2021-06-10 00:35:00.000,0,40.9204,1.3334,,,,,,,,,,22.5,22.4,,,,,,,,,,,,,,2021,6,10,0,35,0,
2021-06-10 00:55:00.000,0,40.9194,1.3351,,,,,,,,,,22.4,22.3,,,,,,,,,,,,,,2021,6,10,0,55,0,
2021-06-10 01:15:00.000,0,40.9184,1.3364,,,,,,,,,,22.4,22.3,,,,,,,,,,,,,,2021,6,10,1,15,0,
2021-06-10 01:35:00.000,0,40.9173,1.3378,,,,,,,,,,22.4,22.3,,,,,,,,,,,,,4.1,2021,6,10,1,35,0,
2021-06-10 01:55:00.000,0,40.916,1.339,,,,,,,,,,22.4,22.3,,,,,,,,,,,,,,2021,6,10,1,55,0,
2021-06-10 02:15:00.000,0,40.9144,1.34,,,,,,,,,,22.4,22.3,,,,,,,,,,,,,,2021,6,10,2,15,0,
2021-06-10 02:35:00.000,0,40.9128,1.3405,,,,,,,,,,22.4,22.2,,,,,,,,,,,,,,2021,6,10,2,35,0,
2021-06-10 02:55:00.000,0,40.9113,1.3405,,,,,,,,,,22.3,22.2,,,,,,,,,,,,,4.1,2021,6,10,2,55,0,
2021-06-10 03:15:00.000,0,40.9096,1.3402,,,,,,,,,,22.3,22.2,,,,,,,,,,,,,,2021,6,10,3,15,0,
2021-06-10 03:35:00.000,0,40.9081,1.3397,,,,,,,,,,22.3,22.1,,,,,,,,,,,,,,2021,6,10,3,35,0,
2021-06-10 03:55:00.000,0,40.9068,1.3388,,,,,,,,,,22.2,22.2,,,,,,,,,,,,,,2021,6,10,3,55,0,
2021-06-10 04:15:00.000,0,40.9056,1.3377,,,,,,,,,,22.2,22.1,,,,,,,,,,,,,4.1,2021,6,10,4,15,0,
2021-06-10 04:35:00.000,0,40.9046,1.3365,,,,,,,,,,22.2,22.1,,,,,,,,,,,,,,2021,6,10,4,35,0,
2021-06-10 04:55:00.000,0,40.9035,1.335,,,,,,,,,,22.2,22.1,,,,,,,,,,,,,,2021,6,10,4,55,0,
2021-06-10 05:15:00.000,0,40.9028,1.3337,,,,,,,,,,22.2,22,,,,,,,,,,,,,,2021,6,10,5,15,0,
2021-06-10 05:35:00.000,0,40.9021,1.3319,,,,,,,,,,22.2,22.2,,,,,,,,,,,,,4.1,2021,6,10,5,35,0,
2021-06-10 05:55:00.000,0,40.9015,1.33,,,,,,,,,,22.2,22.3,,,,,,,,,,,,,,2021,6,10,5,55,0,
2021-06-10 06:15:00.000,0,40.9012,1.3282,,,,,,,,,,22.3,22.4,,,,,,,,,,,,,,2021,6,10,6,15,0,
2021-06-10 06:35:00.000,0,40.9007,1.3262,,,,,,,,,,22.3,22.6,,,,,,,,,,,,,,2021,6,10,6,35,0,
2021-06-10 06:55:00.000,0,40.9001,1.324,,,,,,,,,,22.4,22.5,,,,,,,,,,,,,,2021,6,10,6,55,0,
2021-06-10 07:15:00.000,0,40.8993,1.3216,,,,,,,,,,22.4,22.6,,,,,,,,,,,,,4.1,2021,6,10,7,15,0,
2021-06-10 07:35:00.000,0,40.8988,1.3187,,,,,,,,,,22.5,22.7,,,,,,,,,,,,,,2021,6,10,7,35,0,
2021-06-10 07:55:00.000,0,40.8986,1.3161,,,,,,,,,,22.6,23.1,,,,,,,,,,,,,,2021,6,10,7,55,0,
2021-06-10 08:15:00.000,0,40.8988,1.3139,,,,,,,,,,22.7,23,,,,,,,,,,,,,,2021,6,10,8,15,0,
2021-06-10 08:35:00.000,0,40.8994,1.3124,,,,,,,,,,22.8,23,,,,,,,,,,,,,,2021,6,10,8,35,0,
2021-06-10 08:55:00.000,0,40.9002,1.3112,,,,,,,,,,22.8,23.1,,,,,,,,,,,,,4.1,2021,6,10,8,55,0,
2021-06-10 09:15:00.000,0,40.9013,1.31,,,,13,,,,,,23,23.3,11.1,11.1,,2.7,13,12,12,158,169,74,70,4.1,4,2021,6,10,9,15,0,
2021-06-10 09:35:00.000,0,40.903,1.3089,,,,,,,,,,23.1,23.4,,,,,,,,,,,,,,2021,6,10,9,35,0,
2021-06-10 09:55:00.000,0,40.9048,1.3081,,,,,,,,,,23.2,23.6,,,,,,,,,,,,,,2021,6,10,9,55,0,
2021-06-10 10:15:00.000,0,40.907,1.3075,,,,,,,,,,23.4,23.7,,,,,,,,,,,,,,2021,6,10,10,15,0,
2021-06-10 10:35:00.000,0,40.9093,1.3072,,,,,,,,,,23.4,23.8,,,,,,,,,,,,,,2021,6,10,10,35,0,
2021-06-10 10:55:00.000,0,40.9118,1.3073,,,,,,,,,,23.4,23.8,,,,,,,,,,,,,4,2021,6,10,10,55,0,
2021-06-10 12:15:00.000,0,40.9229,1.3108,,,,14,,,,,,23.9,24.2,11.1,11.1,,2.2,12,11,15,234,252,78,77,3.7,4,2021,6,10,12,15,0,
2021-06-10 12:35:00.000,0,40.9256,1.3128,,,,,,,,,,24,24.4,,,,,,,,,,,,,,2021,6,10,12,35,0,
2021-06-10 12:55:00.000,0,40.9282,1.3154,,,,,,,,,,24.3,24.7,,,,,,,,,,,,,,2021,6,10,12,55,0,
2021-06-10 13:15:00.000,0,40.9308,1.3186,,,,15,,,,,,24.6,24.9,11.1,11.1,,1.7,12,11,11,204,185,76,76,3.1,4,2021,6,10,13,15,0,
2021-06-10 13:35:00.000,0,40.9334,1.322,,,,,,,,,,25,25.3,,,,,,,,,,,,,4.1,2021,6,10,13,35,0,
2021-06-10 13:55:00.000,0,40.936,1.3256,,,,,,,,,,25.1,25.3,,,,,,,,,,,,,,2021,6,10,13,55,0,
2021-06-10 14:15:00.000,0,40.9385,1.3289,,,,15,,,,,,25.2,25.5,11.1,11.1,,0.8,11,10,14,159,152,77,78,1.8,4,2021,6,10,14,15,0,
2021-06-10 14:35:00.000,0,40.9409,1.3321,,,,,,,,,,25.2,25.4,,,,,,,,,,,,,,2021,6,10,14,35,0,
2021-06-10 14:55:00.000,0,40.9428,1.3349,,,,,,,,,,25.2,25.4,,,,,,,,,,,,,4,2021,6,10,14,55,0,
2021-06-10 15:15:00.000,0,40.9446,1.3375,,,,,,,,,,25.1,25.2,,,,,,,,,,,,,,2021,6,10,15,15,0,
2021-06-10 15:35:00.000,0,40.9462,1.3398,,,,,,,,,,25.2,25.5,,,,,,,,,,,,,,2021,6,10,15,35,0,
2021-06-10 15:55:00.000,0,40.9478,1.3421,,,,,,,,,,25.1,25.3,,,,,,,,,,,,,,2021,6,10,15,55,0,
2021-06-10 16:15:00.000,0,40.9491,1.3444,,,,,,,,,,25,25.1,,,,,,,,,,,,,4,2021,6,10,16,15,0,
2021-06-10 16:55:00.000,0,40.9512,1.3484,,,,,,,,,,24.8,24.9,,,,,,,,,,,,,,2021,6,10,16,55,0,
2021-06-10 17:15:00.000,0,40.952,1.3503,,,,14,,,,,,24.8,24.9,11.1,11.1,,3.1,12,11,18,227,230,71,64,5,4,2021,6,10,17,15,0,
2021-06-10 17:35:00.000,0,40.9527,1.3524,,,,,,,,,,24.7,24.8,,,,,,,,,,,,,,2021,6,10,17,35,0,
2021-06-10 17:55:00.000,0,40.9532,1.3544,,,,,,,,,,24.7,24.7,,,,,,,,,,,,,4,2021,6,10,17,55,0,
2021-06-10 18:15:00.000,0,40.9537,1.3561,,,,,,,,,,24.6,24.6,,,,,,,,,,,,,,2021,6,10,18,15,0,
2021-06-10 18:35:00.000,0,40.954,1.3578,,,,,,,,,,24.4,24.4,,,,,,,,,,,,,,2021,6,10,18,35,0,
2021-06-10 18:55:00.000,0,40.9543,1.3592,,,,,,,,,,24.3,24.2,,,,,,,,,,,,,,2021,6,10,18,55,0,
2021-06-10 19:15:00.000,0,40.9544,1.3605,,,,,,,,,,23.9,23.5,,,,,,,,,,,,,,2021,6,10,19,15,0,
2021-06-10 19:35:00.000,0,40.9543,1.3616,,,,,,,,,,24.1,24,,,,,,,,,,,,,4,2021,6,10,19,35,0,
2021-06-10 19:55:00.000,0,40.954,1.3625,,,,,,,,,,24,23.8,,,,,,,,,,,,,4,2021,6,10,19,55,0,
2021-06-10 20:35:00.000,0,40.9534,1.363,,,,,,,,,,24,23.9,,,,,,,,,,,,,,2021,6,10,20,35,0,
2021-06-10 20:55:00.000,0,40.953,1.363,,,,,,,,,,23.9,23.8,,,,,,,,,,,,,,2021,6,10,20,55,0,
2021-06-10 21:15:00.000,0,40.9526,1.3629,,,,,,,,,,23.8,23.6,,,,,,,,,,,,,,2021,6,10,21,15,0,
2021-06-10 21:35:00.000,0,40.9524,1.3626,,,,,,,,,,23.8,23.6,,,,,,,,,,,,,,2021,6,10,21,35,0,
2021-06-10 21:55:00.000,0,40.9522,1.3624,,,,,,,,,,23.8,23.6,,,,,,,,,,,,,,2021,6,10,21,55,0,
2021-06-10 22:15:00.000,0,40.9521,1.3623,,,,,,,,,,23.7,23.5,,,,,,,,,,,,,,2021,6,10,22,15,0,
2021-06-10 22:35:00.000,0,40.9519,1.3621,,,,,,,,,,23.7,23.4,,,,,,,,,,,,,,2021,6,10,22,35,0,
2021-06-10 22:55:00.000,0,40.9516,1.3618,,,,,,,,,,23.6,23.4,,,,,,,,,,,,,4,2021,6,10,22,55,0,
2021-06-10 23:15:00.000,0,40.9513,1.3613,,,,,,,,,,23.5,23.4,,,,,,,,,,,,,,2021,6,10,23,15,0,
2021-06-10 23:35:00.000,0,40.9508,1.3604,,,,,,,,,,23.5,23.3,,,,,,,,,,,,,,2021,6,10,23,35,0,
2021-06-10 23:55:00.000,0,40.9503,1.3593,,,,,,,,,,23.4,23.3,,,,,,,,,,,,,,2021,6,10,23,55,0,
2021-06-11 00:15:00.000,0,40.9499,1.3581,,,,,,,,,,23.4,23.3,,,,,,,,,,,,,4,2021,6,11,0,15,0,
2021-06-11 00:35:00.000,0,40.9498,1.3568,,,,,,,,,,23.4,23.3,,,,,,,,,,,,,,2021,6,11,0,35,0,
2021-06-11 00:55:00.000,0,40.9498,1.3557,,,,,,,,,,23.4,23.2,,,,,,,,,,,,,,2021,6,11,0,55,0,
2021-06-11 01:15:00.000,0,40.9499,1.3546,,,,,,,,,,23.3,23.2,,,,,,,,,,,,,,2021,6,11,1,15,0,
2021-06-11 01:35:00.000,0,40.9505,1.3534,,,,,,,,,,23.3,23.2,,,,,,,,,,,,,4,2021,6,11,1,35,0,
2021-06-11 01:55:00.000,0,40.9512,1.3524,,,,,,,,,,23.3,23.1,,,,,,,,,,,,,,2021,6,11,1,55,0,
2021-06-11 02:15:00.000,0,40.952,1.3515,,,,,,,,,,23.3,23,,,,,,,,,,,,,,2021,6,11,2,15,0,
2021-06-11 02:35:00.000,0,40.9525,1.3509,,,,,,,,,,23.3,23.1,,,,,,,,,,,,,,2021,6,11,2,35,0,
2021-06-11 02:55:00.000,0,40.9528,1.3505,,,,,,,,,,23.3,23.1,,,,,,,,,,,,,4,2021,6,11,2,55,0,
2021-06-11 03:15:00.000,0,40.953,1.3499,,,,,,,,,,23.2,23.1,,,,,,,,,,,,,,2021,6,11,3,15,0,
2021-06-11 03:35:00.000,0,40.953,1.3492,,,,,,,,,,23.1,23,,,,,,,,,,,,,,2021,6,11,3,35,0,
2021-06-11 03:55:00.000,0,40.9531,1.3485,,,,,,,,,,23.1,23,,,,,,,,,,,,,,2021,6,11,3,55,0,
2021-06-11 04:15:00.000,0,40.9533,1.348,,,,17,,,,,,23,22.9,11.1,11.1,,2.6,12,11,15,122,158,76,73,4.2,4,2021,6,11,4,15,0,
2021-06-11 04:35:00.000,0,40.9535,1.3473,,,,,,,,,,22.9,22.8,,,,,,,,,,,,,,2021,6,11,4,35,0,
2021-06-11 04:55:00.000,0,40.9537,1.3463,,,,,,,,,,22.9,22.9,,,,,,,,,,,,,,2021,6,11,4,55,0,
2021-06-11 05:15:00.000,0,40.954,1.345,,,,,,,,,,22.9,22.9,,,,,,,,,,,,,,2021,6,11,5,15,0,
2021-06-11 05:35:00.000,0,40.9544,1.3434,,,,,,,,,,23,23,,,,,,,,,,,,,4,2021,6,11,5,35,0,
2021-06-11 05:55:00.000,0,40.9549,1.3419,,,,,,,,,,23,23.1,,,,,,,,,,,,,,2021,6,11,5,55,0,
2021-06-11 06:15:00.000,0,40.9556,1.3406,,,,,,,,,,23,23.1,,,,,,,,,,,,,,2021,6,11,6,15,0,
2021-06-11 06:35:00.000,0,40.9564,1.3394,,,,,,,,,,23,23.2,,,,,,,,,,,,,,2021,6,11,6,35,0,
2021-06-11 06:55:00.000,0,40.9574,1.3381,,,,,,,,,,23.1,23.2,,,,,,,,,,,,,4,2021,6,11,6,55,0,
2021-06-11 07:15:00.000,0,40.9584,1.337,,,,,,,,,,23.1,23.2,,,,,,,,,,,,,,2021,6,11,7,15,0,
2021-06-11 07:35:00.000,0,40.9597,1.3363,,,,,,,,,,23.3,23.4,,,,,,,,,,,,,,2021,6,11,7,35,0,
2021-06-11 07:55:00.000,0,40.9613,1.3361,,,,,,,,,,23.4,23.6,,,,,,,,,,,,,,2021,6,11,7,55,0,
2021-06-11 08:15:00.000,0,40.9632,1.3364,,,,,,,,,,23.3,23.4,,,,,,,,,,,,,4,2021,6,11,8,15,0,
2021-06-11 08:35:00.000,0,40.9653,1.3366,,,,,,,,,,23.3,23.3,,,,,,,,,,,,,,2021,6,11,8,35,0,
2021-06-11 08:55:00.000,0,40.9673,1.3367,,,,,,,,,,23.3,23.2,,,,,,,,,,,,,,2021,6,11,8,55,0,
2021-06-11 09:15:00.000,0,40.9691,1.3376,,,,,,,,,,23.3,23.2,,,,,,,,,,,,,,2021,6,11,9,15,0,
2021-06-11 09:35:00.000,0,40.9708,1.3385,,,,,,,,,,23.3,23.3,,,,,,,,,,,,,4,2021,6,11,9,35,0,
2021-06-11 11:15:00.000,0,40.9785,1.3465,,,,,,,,,,23.2,23.2,,,,,,,,,,,,,,2021,6,11,11,15,0,
2021-06-11 11:35:00.000,0,40.9797,1.3483,,,,,,,,,,23.2,23.3,,,,,,,,,,,,,,2021,6,11,11,35,0,
2021-06-11 11:55:00.000,0,40.9809,1.3502,,,,,,,,,,23.3,23.4,,,,,,,,,,,,,,2021,6,11,11,55,0,
2021-06-11 12:15:00.000,0,40.9819,1.3519,,,,14,,,,,,23.5,23.7,11.1,11.1,,1.8,12,11,12,257,250,71,59,4.1,4,2021,6,11,12,15,0,
2021-06-11 12:35:00.000,0,40.9825,1.3541,,,,,,,,,,23.5,23.6,,,,,,,,,,,,,,2021,6,11,12,35,0,
2021-06-11 12:55:00.000,0,40.9828,1.3566,,,,,,,,,,23.7,24,,,,,,,,,,,,,,2021,6,11,12,55,0,
2021-06-11 13:15:00.000,0,40.9829,1.3595,,,,,,,,,,23.9,24.2,,,,,,,,,,,,,,2021,6,11,13,15,0,
2021-06-11 13:35:00.000,0,40.9834,1.3625,,,,,,,,,,24,24.3,,,,,,,,,,,,,4,2021,6,11,13,35,0,
2021-06-11 13:55:00.000,0,40.9839,1.3654,,,,,,,,,,24.1,24.3,,,,,,,,,,,,,,2021,6,11,13,55,0,
2021-06-11 14:15:00.000,0,40.9842,1.3683,,,,,,,,,,24.3,24.5,,,,,,,,,,,,,,2021,6,11,14,15,0,
2021-06-11 14:35:00.000,0,40.9842,1.3712,,,,,,,,,,24.6,24.9,,,,,,,,,,,,,,2021,6,11,14,35,0,
2021-06-11 14:55:00.000,0,40.9842,1.3739,,,,,,,,,,24.6,24.8,,,,,,,,,,,,,4,2021,6,11,14,55,0,
2021-06-11 15:15:00.000,0,40.9839,1.3767,,,,15,,,,,,24.6,24.9,11.1,11.1,,0.7,11,10,11,95,129,80,77,1.5,4,2021,6,11,15,15,0,
2021-06-11 16:35:00.000,0,40.9808,1.3865,,,,,,,,,,24.2,24.3,,,,,,,,,,,,,,2021,6,11,16,35,0,
2021-06-11 16:55:00.000,0,40.9787,1.3881,,,,,,,,,,24.1,24.1,,,,,,,,,,,,,,2021,6,11,16,55,0,
2021-06-11 17:15:00.000,0,40.9761,1.3896,,,,,,,,,,23.8,23.9,,,,,,,,,,,,,,2021,6,11,17,15,0,
2021-06-11 17:35:00.000,0,40.9736,1.3908,,,,,,,,,,23.9,23.9,,,,,,,,,,,,,,2021,6,11,17,35,0,
2021-06-11 17:55:00.000,0,40.9713,1.392,,,,,,,,,,23.8,23.8,,,,,,,,,,,,,4,2021,6,11,17,55,0,
2021-06-11 18:15:00.000,0,40.9693,1.393,,,,,,,,,,23.8,23.7,,,,,,,,,,,,,,2021,6,11,18,15,0,
2021-06-11 18:35:00.000,0,40.9672,1.3936,,,,,,,,,,23.8,23.6,,,,,,,,,,,,,,2021,6,11,18,35,0,
2021-06-11 18:55:00.000,0,40.9653,1.3937,,,,,,,,,,23.7,23.6,,,,,,,,,,,,,,2021,6,11,18,55,0,
2021-06-11 19:15:00.000,0,40.9634,1.3939,,,,,,,,,,23.7,23.5,,,,,,,,,,,,,,2021,6,11,19,15,0,
2021-06-11 19:35:00.000,0,40.9619,1.3942,,,,,,,,,,23.7,23.5,,,,,,,,,,,,,,2021,6,11,19,35,0,
2021-06-11 19:55:00.000,0,40.9604,1.3944,,,,,,,,,,23.6,23.4,,,,,,,,,,,,,,2021,6,11,19,55,0,
2021-06-11 20:15:00.000,0,40.959,1.3945,,,,17,,,,,,23.6,23.4,11.1,11.1,,2.4,12,11,12,20,21,75,75,4.8,4,2021,6,11,20,15,0,
2021-06-11 20:35:00.000,0,40.9576,1.3943,,,,,,,,,,23.5,23.4,,,,,,,,,,,,,,2021,6,11,20,35,0,
2021-06-11 20:55:00.000,0,40.9559,1.3941,,,,,,,,,,23.5,23.3,,,,,,,,,,,,,,2021,6,11,20,55,0,
2021-06-11 21:15:00.000,0,40.9545,1.3939,,,,,,,,,,23.4,23.3,,,,,,,,,,,,,,2021,6,11,21,15,0,
2021-06-11 21:35:00.000,0,40.9531,1.3933,,,,,,,,,,23.4,23.3,,,,,,,,,,,,,,2021,6,11,21,35,0,
2021-06-11 21:55:00.000,0,40.9515,1.3919,,,,,,,,,,23.4,23.3,,,,,,,,,,,,,,2021,6,11,21,55,0,
2021-06-11 22:15:00.000,0,40.9502,1.39,,,,,,,,,,23.4,23.3,,,,,,,,,,,,,4,2021,6,11,22,15,0,
2021-06-12 01:15:00.000,0,40.9411,1.3758,,,,11,,,,,,23.2,23,11.1,11.1,,3.8,12,11,12,38,41,71,69,5.7,4,2021,6,12,1,15,0,
2021-06-12 04:15:00.000,0,40.9337,1.3681,,,,15,,,,,,23.1,23,11.1,11.1,,4.9,12,11,13,338,325,68,59,7.4,4,2021,6,12,4,15,0,
2021-06-12 06:15:00.000,0,40.927,1.3634,,,,12,,,,,,23.1,23.1,11.1,11.1,,3.9,12,11,17,33,15,69,67,6.5,4,2021,6,12,6,15,0,
2021-06-12 06:55:00.000,0,40.9248,1.3611,,,,,,,,,,23.2,23.2,,,,,,,,,,,,,,2021,6,12,6,55,0,
2021-06-12 07:15:00.000,0,40.9239,1.36,,,,,,,,,,23.2,23.3,,,,,,,,,,,,,,2021,6,12,7,15,0,
2021-06-12 07:35:00.000,0,40.923,1.3588,,,,,,,,,,23.3,23.4,,,,,,,,,,,,,,2021,6,12,7,35,0,
2021-06-12 07:55:00.000,0,40.9222,1.3575,,,,,,,,,,23.4,23.5,,,,,,,,,,,,,,2021,6,12,7,55,0,
2021-06-12 08:15:00.000,0,40.9213,1.3562,,,,,,,,,,23.6,23.8,,,,,,,,,,,,,,2021,6,12,8,15,0,
2021-06-12 08:35:00.000,0,40.9205,1.3549,,,,,,,,,,23.9,24.2,,,,,,,,,,,,,,2021,6,12,8,35,0,
2021-06-12 08:55:00.000,0,40.9199,1.354,,,,,,,,,,24,24.4,,,,,,,,,,,,,,2021,6,12,8,55,0,
2021-06-12 09:15:00.000,0,40.9195,1.3527,,,,,,,,,,24.4,24.8,,,,,,,,,,,,,,2021,6,12,9,15,0,
2021-06-12 09:35:00.000,0,40.9192,1.3517,,,,,,,,,,24.8,25.3,,,,,,,,,,,,,,2021,6,12,9,35,0,
2021-06-12 09:55:00.000,0,40.9191,1.3508,,,,,,,,,,25.4,26,,,,,,,,,,,,,,2021,6,12,9,55,0,
2021-06-12 10:15:00.000,0,40.9193,1.3497,,,,,,,,,,25.3,25.6,,,,,,,,,,,,,,2021,6,12,10,15,0,
2021-06-12 10:35:00.000,0,40.9199,1.3489,,,,,,,,,,25.5,25.8,,,,,,,,,,,,,4,2021,6,12,10,35,0,
2021-06-12 10:55:00.000,0,40.9208,1.3484,,,,,,,,,,25.8,26.1,,,,,,,,,,,,,,2021,6,12,10,55,0,
2021-06-12 11:15:00.000,0,40.9221,1.3479,,,,,,,,,,25.7,26,,,,,,,,,,,,,,2021,6,12,11,15,0,
2021-06-12 11:35:00.000,0,40.9237,1.3474,,,,,,,,,,25.6,26,,,,,,,,,,,,,,2021,6,12,11,35,0,
2021-06-12 11:55:00.000,0,40.9255,1.3471,,,,,,,,,,25.6,25.9,,,,,,,,,,,,,,2021,6,12,11,55,0,
2021-06-12 12:15:00.000,0,40.9275,1.3469,,,,,,,,,,25.3,25.6,,,,,,,,,,,,,4,2021,6,12,12,15,0,
2021-06-12 13:15:00.000,0,40.9338,1.346,,,,15,,,,,,25.3,25.4,11.1,11.1,,3.9,12,11,11,169,170,71,67,8.4,4,2021,6,12,13,15,0,
2021-06-12 13:55:00.000,0,40.9391,1.3459,,,,,,,,,,25.2,25.4,,,,,,,,,,,,,,2021,6,12,13,55,0,
2021-06-12 14:15:00.000,0,40.9423,1.3462,,,,,,,,,,25.2,25.3,,,,,,,,,,,,,,2021,6,12,14,15,0,
2021-06-12 14:35:00.000,0,40.9453,1.3468,,,,,,,,,,25.1,25.2,,,,,,,,,,,,,,2021,6,12,14,35,0,
2021-06-12 14:55:00.000,0,40.9482,1.348,,,,,,,,,,24.9,25,,,,,,,,,,,,,4,2021,6,12,14,55,0,
2021-06-12 15:15:00.000,0,40.9509,1.3493,,,,13,,,,,,24.8,24.9,11.1,11.1,,4.4,13,12,15,205,221,69,66,8.2,4,2021,6,12,15,15,0,
2021-06-12 15:35:00.000,0,40.9536,1.3512,,,,,,,,,,24.7,24.8,,,,,,,,,,,,,,2021,6,12,15,35,0,
2021-06-12 15:55:00.000,0,40.956,1.3532,,,,,,,,,,24.5,24.5,,,,,,,,,,,,,,2021,6,12,15,55,0,
2021-06-12 16:15:00.000,0,40.9581,1.3552,,,,13,,,,,,24.5,24.6,11.1,11.1,,3.4,12,11,14,207,221,71,72,5.8,4,2021,6,12,16,15,0,
2021-06-12 16:35:00.000,0,40.9596,1.3574,,,,,,,,,,24.4,24.6,,,,,,,,,,,,,,2021,6,12,16,35,0,
2021-06-12 16:55:00.000,0,40.961,1.3596,,,,,,,,,,24.5,24.6,,,,,,,,,,,,,,2021,6,12,16,55,0,
2021-06-12 17:15:00.000,0,40.9621,1.3616,,,,,,,,,,24.4,24.5,,,,,,,,,,,,,,2021,6,12,17,15,0,
2021-06-12 17:35:00.000,0,40.963,1.3635,,,,,,,,,,24.5,24.6,,,,,,,,,,,,,4,2021,6,12,17,35,0,
2021-06-12 17:55:00.000,0,40.9636,1.3654,,,,,,,,,,24.5,24.4,,,,,,,,,,,,,,2021,6,12,17,55,0,
2021-06-12 18:15:00.000,0,40.9638,1.3674,,,,,,,,,,24.5,24.4,,,,,,,,,,,,,,2021,6,12,18,15,0,
2021-06-12 18:35:00.000,0,40.9639,1.3692,,,,,,,,,,24.5,24.4,,,,,,,,,,,,,,2021,6,12,18,35,0,
2021-06-12 18:55:00.000,0,40.9639,1.3709,,,,,,,,,,24.5,24.3,,,,,,,,,,,,,,2021,6,12,18,55,0,
2021-06-12 19:15:00.000,0,40.9637,1.3727,,,,,,,,,,24.3,24.3,,,,,,,,,,,,,,2021,6,12,19,15,0,
2021-06-12 19:35:00.000,0,40.9634,1.3741,,,,,,,,,,24.3,24.2,,,,,,,,,,,,,,2021,6,12,19,35,0,
2021-06-12 19:55:00.000,0,40.963,1.3755,,,,,,,,,,24.2,24.2,,,,,,,,,,,,,,2021,6,12,19,55,0,
2021-06-12 20:15:00.000,0,40.9625,1.3766,,,,,,,,,,24.2,24.1,,,,,,,,,,,,,3.9,2021,6,12,20,15,0,
2021-06-12 20:35:00.000,0,40.9618,1.3778,,,,,,,,,,24.2,24,,,,,,,,,,,,,,2021,6,12,20,35,0,
2021-06-12 20:55:00.000,0,40.9608,1.3787,,,,,,,,,,24.2,24,,,,,,,,,,,,,,2021,6,12,20,55,0,
2021-06-12 21:15:00.000,0,40.9595,1.3796,,,,,,,,,,24.2,23.9,,,,,,,,,,,,,,2021,6,12,21,15,0,
2021-06-12 21:35:00.000,0,40.9581,1.3804,,,,,,,,,,24.1,24,,,,,,,,,,,,,,2021,6,12,21,35,0,
2021-06-12 21:55:00.000,0,40.9566,1.3811,,,,,,,,,,24.1,23.9,,,,,,,,,,,,,,2021,6,12,21,55,0,
2021-06-12 22:15:00.000,0,40.955,1.3816,,,,,,,,,,24.1,23.9,,,,,,,,,,,,,,2021,6,12,22,15,0,
2021-06-12 22:35:00.000,0,40.9533,1.3816,,,,,,,,,,24.1,23.9,,,,,,,,,,,,,,2021,6,12,22,35,0,
2021-06-12 22:55:00.000,0,40.9516,1.3813,,,,,,,,,,24,23.8,,,,,,,,,,,,,3.9,2021,6,12,22,55,0,
2021-06-12 23:15:00.000,0,40.9498,1.3808,,,,,,,,,,23.9,23.7,,,,,,,,,,,,,,2021,6,12,23,15,0,
2021-06-12 23:35:00.000,0,40.948,1.3801,,,,,,,,,,23.9,23.8,,,,,,,,,,,,,,2021,6,12,23,35,0,
2021-06-12 23:55:00.000,0,40.9461,1.3793,,,,,,,,,,23.8,23.7,,,,,,,,,,,,,,2021,6,12,23,55,0,
2021-06-13 00:15:00.000,0,40.9443,1.3784,,,,15,,,,,,23.8,23.7,11.1,11.1,,0.3,6,6,11,211,325,76,72,0.8,3.9,2021,6,13,0,15,0,
2021-06-13 00:35:00.000,0,40.9424,1.3775,,,,,,,,,,23.8,23.7,,,,,,,,,,,,,,2021,6,13,0,35,0,
2021-06-13 00:55:00.000,0,40.9405,1.3765,,,,,,,,,,23.8,23.7,,,,,,,,,,,,,,2021,6,13,0,55,0,
2021-06-13 01:15:00.000,0,40.9388,1.3758,,,,,,,,,,23.9,23.7,,,,,,,,,,,,,,2021,6,13,1,15,0,
2021-06-13 01:35:00.000,0,40.937,1.3749,,,,,,,,,,23.9,23.7,,,,,,,,,,,,,3.9,2021,6,13,1,35,0,
2021-06-13 02:15:00.000,0,40.933,1.3731,,,,16,,,,,,23.9,23.8,11.1,11.1,,4.3,13,12,13,8,20,69,65,6,3.9,2021,6,13,2,15,0,
2021-06-13 03:15:00.000,0,40.9281,1.3689,,,,,,,,,,23.9,23.7,,,,,,,,,,,,,,2021,6,13,3,15,0,
2021-06-13 03:35:00.000,0,40.9267,1.3673,,,,,,,,,,23.9,23.8,,,,,,,,,,,,,,2021,6,13,3,35,0,
2021-06-13 03:55:00.000,0,40.9255,1.3656,,,,,,,,,,23.9,23.8,,,,,,,,,,,,,,2021,6,13,3,55,0,
2021-06-13 04:15:00.000,0,40.9244,1.3638,,,,,,,,,,23.9,23.8,,,,,,,,,,,,,,2021,6,13,4,15,0,
2021-06-13 04:35:00.000,0,40.9234,1.3623,,,,,,,,,,23.9,23.8,,,,,,,,,,,,,,2021,6,13,4,35,0,
2021-06-13 04:55:00.000,0,40.9224,1.3608,,,,,,,,,,23.9,23.8,,,,,,,,,,,,,,2021,6,13,4,55,0,
2021-06-13 05:15:00.000,0,40.9213,1.3595,,,,,,,,,,23.9,23.8,,,,,,,,,,,,,,2021,6,13,5,15,0,
2021-06-13 05:35:00.000,0,40.9204,1.3582,,,,,,,,,,23.9,23.9,,,,,,,,,,,,,3.9,2021,6,13,5,35,0,
2021-06-13 05:55:00.000,0,40.9193,1.3567,,,,,,,,,,23.8,23.9,,,,,,,,,,,,,,2021,6,13,5,55,0,
2021-06-13 06:15:00.000,0,40.9184,1.355,,,,,,,,,,23.9,24,,,,,,,,,,,,,,2021,6,13,6,15,0,
2021-06-13 06:35:00.000,0,40.9172,1.3533,,,,,,,,,,23.9,24,,,,,,,,,,,,,,2021,6,13,6,35,0,
2021-06-13 06:55:00.000,0,40.9158,1.3516,,,,,,,,,,23.9,24,,,,,,,,,,,,,3.9,2021,6,13,6,55,0,
2021-06-13 07:15:00.000,0,40.9144,1.3498,,,,15,,,,,,24,24,11.1,11.1,,3.1,12,11,16,41,46,76,70,5.5,3.9,2021,6,13,7,15,0,
2021-06-13 07:55:00.000,0,40.9126,1.3455,,,,,,,,,,24.1,24.2,,,,,,,,,,,,,,2021,6,13,7,55,0,
2021-06-13 08:15:00.000,0,40.9121,1.343,,,,,,,,,,24.3,24.4,,,,,,,,,,,,,,2021,6,13,8,15,0,
2021-06-13 08:35:00.000,0,40.9117,1.3403,,,,,,,,,,24.5,24.7,,,,,,,,,,,,,,2021,6,13,8,35,0,
2021-06-13 08:55:00.000,0,40.9117,1.3374,,,,,,,,,,24.9,25.3,,,,,,,,,,,,,,2021,6,13,8,55,0,
2021-06-13 09:15:00.000,0,40.9122,1.3345,,,,15,,,,,,25,25.3,11.1,11.1,,0.6,11,9,16,44,26,80,78,1.3,3.9,2021,6,13,9,15,0,
2021-06-13 09:35:00.000,0,40.9134,1.3318,,,,,,,,,,24.9,25.2,,,,,,,,,,,,,3.9,2021,6,13,9,35,0,
2021-06-13 15:15:00.000,0,40.9478,1.3506,,,,13,,,,,,24.8,24.8,11.1,11.1,,5.8,12,11,13,280,268,74,66,9.2,3.9,2021,6,13,15,15,0,
2021-06-13 16:15:00.000,0,40.9488,1.3595,,,,12,,,,,,24.7,24.8,11.1,11.1,,4.9,12,11,16,316,332,78,74,6.7,3.9,2021,6,13,16,15,0,
2021-06-13 18:15:00.000,0,40.9469,1.373,,,,,,,,,,24.7,24.5,,,,,,,,,,,,,,2021,6,13,18,15,0,
2021-06-13 18:35:00.000,0,40.9459,1.3747,,,,,,,,,,24.7,24.5,,,,,,,,,,,,,,2021,6,13,18,35,0,
2021-06-13 18:55:00.000,0,40.9447,1.3762,,,,,,,,,,24.6,24.5,,,,,,,,,,,,,,2021,6,13,18,55,0,
2021-06-13 19:15:00.000,0,40.9432,1.3774,,,,,,,,,,24.6,24.4,,,,,,,,,,,,,,2021,6,13,19,15,0,
2021-06-13 19:35:00.000,0,40.9416,1.3782,,,,,,,,,,24.6,24.4,,,,,,,,,,,,,3.9,2021,6,13,19,35,0,
2021-06-13 20:15:00.000,0,40.9375,1.3789,,,,,,,,,,24.5,24.3,,,,,,,,,,,,,,2021,6,13,20,15,0,
2021-06-13 20:35:00.000,0,40.9352,1.3784,,,,,,,,,,24.4,24.3,,,,,,,,,,,,,,2021,6,13,20,35,0,
2021-06-13 20:55:00.000,0,40.9326,1.3776,,,,,,,,,,24.4,24.2,,,,,,,,,,,,,,2021,6,13,20,55,0,
2021-06-13 21:15:00.000,0,40.9301,1.3764,,,,,,,,,,24.4,24.2,,,,,,,,,,,,,,2021,6,13,21,15,0,
2021-06-13 21:35:00.000,0,40.9278,1.375,,,,,,,,,,24.5,24.3,,,,,,,,,,,,,,2021,6,13,21,35,0,
2021-06-13 21:55:00.000,0,40.9257,1.3735,,,,,,,,,,24.4,24.2,,,,,,,,,,,,,3.9,2021,6,13,21,55,0,
2021-06-13 23:15:00.000,0,40.9179,1.3641,,,,15,,,,,,24.3,24.1,11.1,11.1,,0.7,9,7,14,103,269,78,76,1.1,3.9,2021,6,13,23,15,0,
2021-06-13 23:35:00.000,0,40.9164,1.3607,,,,,,,,,,24.2,24,,,,,,,,,,,,,,2021,6,13,23,35,0,
2021-06-13 23:55:00.000,0,40.9153,1.3571,,,,,,,,,,24.2,24,,,,,,,,,,,,,,2021,6,13,23,55,0,
2021-06-14 00:15:00.000,0,40.9148,1.353,,,,15,,,,,,24.2,24,11.1,11.1,,1,10,8,14,67,136,81,78,1.8,3.9,2021,6,14,0,15,0,
2021-06-14 00:35:00.000,0,40.9148,1.3487,,,,,,,,,,24.2,24,,,,,,,,,,,,,,2021,6,14,0,35,0,
2021-06-14 00:55:00.000,0,40.9153,1.3444,,,,,,,,,,24.2,24,,,,,,,,,,,,,,2021,6,14,0,55,0,
2021-06-14 01:15:00.000,0,40.916,1.3404,,,,,,,,,,24.2,24,,,,,,,,,,,,,,2021,6,14,1,15,0,
2021-06-14 01:35:00.000,0,40.9169,1.3368,,,,,,,,,,24.2,24,,,,,,,,,,,,,3.9,2021,6,14,1,35,0,
2021-06-14 02:15:00.000,0,40.9193,1.3303,,,,17,,,,,,24.2,24,11.1,11.1,,3.9,13,12,13,170,187,68,67,6.1,3.9,2021,6,14,2,15,0,
2021-06-14 03:15:00.000,0,40.9253,1.3236,,,,13,,,,,,24.1,24,11.1,11.1,,3.3,12,11,12,160,177,74,70,4.6,3.9,2021,6,14,3,15,0,
2021-06-14 03:35:00.000,0,40.9275,1.3221,,,,,,,,,,24.2,24,,,,,,,,,,,,,,2021,6,14,3,35,0,
2021-06-14 03:55:00.000,0,40.9296,1.3208,,,,,,,,,,24.1,23.9,,,,,,,,,,,,,,2021,6,14,3,55,0,
2021-06-14 04:15:00.000,0,40.9316,1.3197,,,,17,,,,,,24.1,23.9,11.1,11.1,,1.8,12,10,12,170,309,76,79,3.2,3.9,2021,6,14,4,15,0,
2021-06-14 04:35:00.000,0,40.9335,1.3191,,,,,,,,,,24.1,23.9,,,,,,,,,,,,,,2021,6,14,4,35,0,
2021-06-14 04:55:00.000,0,40.9349,1.319,,,,,,,,,,24,23.9,,,,,,,,,,,,,,2021,6,14,4,55,0,
2021-06-14 05:15:00.000,0,40.936,1.3192,,,,12,,,,,,24,23.9,11.1,11.1,,3.8,12,11,12,89,87,79,75,8,3.9,2021,6,14,5,15,0,
2021-06-14 05:35:00.000,0,40.937,1.3193,,,,,,,,,,24,24,,,,,,,,,,,,,,2021,6,14,5,35,0,
2021-06-14 05:55:00.000,0,40.938,1.3196,,,,,,,,,,24,24,,,,,,,,,,,,,,2021,6,14,5,55,0,
2021-06-14 06:15:00.000,0,40.9391,1.3202,,,,14,,,,,,24.1,24.1,11.1,11.1,,2,12,11,17,209,240,75,73,3.4,3.9,2021,6,14,6,15,0,
2021-06-14 06:35:00.000,0,40.9405,1.3212,,,,,,,,,,24.1,24.1,,,,,,,,,,,,,,2021,6,14,6,35,0,
2021-06-14 06:55:00.000,0,40.942,1.3223,,,,,,,,,,24.1,24.2,,,,,,,,,,,,,3.9,2021,6,14,6,55,0,
2021-06-14 07:15:00.000,0,40.9436,1.3236,,,,,,,,,,24.2,24.2,,,,,,,,,,,,,,2021,6,14,7,15,0,
2021-06-14 07:35:00.000,0,40.9455,1.3253,,,,,,,,,,24.3,24.3,,,,,,,,,,,,,3.9,2021,6,14,7,35,0,
2021-06-14 08:15:00.000,0,40.9496,1.3294,,,,,,,,,,24.3,24.4,,,,,,,,,,,,,,2021,6,14,8,15,0,
2021-06-14 08:35:00.000,0,40.9516,1.3318,,,,,,,,,,24.4,24.5,,,,,,,,,,,,,,2021,6,14,8,35,0,
2021-06-14 08:55:00.000,0,40.9535,1.3345,,,,,,,,,,24.5,24.7,,,,,,,,,,,,,,2021,6,14,8,55,0,
2021-06-14 09:15:00.000,0,40.9552,1.3372,,,,,,,,,,24.6,24.8,,,,,,,,,,,,,3.9,2021,6,14,9,15,0,